Time,TemperatureF,DewpointF,PressureIn,WindDirection,WindDirectionDegrees,WindSpeedMPH,WindSpeedGustMPH,Humidity,HourlyPrecipIn,Conditions,Clouds,dailyrainin,SoftwareType,DateUTC
2013-02-11 00:02:00,47.0,40.0,-100.00,NW,315,12.0,19.0,75,0.00,,,-99.99,,2013-02-11 05:02:00,
2013-02-11 00:12:00,47.0,40.0,-100.00,NW,305,11.0,17.0,76,0.00,,,-99.99,,2013-02-11 05:12:00,
2013-02-11 00:22:00,47.0,40.0,-100.00,NW,310,11.0,19.0,76,0.00,,,-99.99,,2013-02-11 05:22:00,
2013-02-11 00:32:00,47.0,40.0,-100.00,NW,305,9.0,19.0,77,0.00,,,-99.99,,2013-02-11 05:32:00,
2013-02-11 00:42:00,47.0,40.0,-100.00,NW,315,12.0,19.0,77,0.00,,,-99.99,,2013-02-11 05:42:00,
2013-02-11 00:52:00,47.0,41.0,-100.00,NW,305,12.0,17.0,78,0.00,,,-99.99,,2013-02-11 05:52:00,
2013-02-11 01:02:00,47.0,41.0,-100.00,NW,305,11.0,21.0,79,0.00,,,-99.99,,2013-02-11 06:02:00,
2013-02-11 01:11:00,47.0,41.0,-100.00,NW,305,14.0,19.0,79,0.00,,,-99.99,,2013-02-11 06:11:00,
2013-02-11 01:22:00,47.0,41.0,-100.00,NW,315,10.0,19.0,79,0.00,,,-99.99,,2013-02-11 06:22:00,
2013-02-11 01:32:00,47.0,41.0,-100.00,NW,310,11.0,17.0,79,0.00,,,-99.99,,2013-02-11 06:32:00,
2013-02-11 01:42:00,47.0,41.0,-100.00,NW,305,9.0,18.0,80,0.00,,,-99.99,,2013-02-11 06:42:00,
2013-02-11 01:51:00,47.0,42.0,-100.00,NW,325,7.0,15.0,82,0.00,,,-99.99,,2013-02-11 06:51:00,
2013-02-11 02:01:00,47.0,42.0,-100.00,NW,315,7.0,14.0,83,0.00,,,-99.99,,2013-02-11 07:01:00,
2013-02-11 02:11:00,47.0,42.0,-100.00,NW,310,10.0,17.0,84,0.00,,,-99.99,,2013-02-11 07:11:00,
2013-02-11 02:21:00,47.0,42.0,-100.00,NW,310,9.0,16.0,86,0.00,,,-99.99,,2013-02-11 07:21:00,
2013-02-11 02:32:00,47.0,43.0,-100.00,NNW,330,7.0,14.0,87,0.00,,,-99.99,,2013-02-11 07:32:00,
2013-02-11 02:42:00,47.0,43.0,-100.00,NW,320,9.0,14.0,88,0.00,,,-99.99,,2013-02-11 07:42:00,
2013-02-11 02:52:00,47.0,44.0,-100.00,NW,310,9.0,16.0,89,0.00,,,-99.99,,2013-02-11 07:52:00,
2013-02-11 03:01:00,47.0,44.0,-100.00,NW,310,6.0,14.0,89,0.00,,,-99.99,,2013-02-11 08:01:00,
2013-02-11 03:11:00,47.0,44.0,-100.00,NW,325,6.0,14.0,88,0.00,,,-99.99,,2013-02-11 08:11:00,
2013-02-11 03:21:00,47.0,44.0,-100.00,NNW,335,5.0,14.0,88,0.00,,,-99.99,,2013-02-11 08:21:00,
2013-02-11 03:32:00,47.0,44.0,-100.00,NW,325,6.0,11.0,88,0.00,,,-99.99,,2013-02-11 08:32:00,
2013-02-11 03:42:00,47.0,44.0,-100.00,NW,305,7.0,11.0,88,0.00,,,-99.99,,2013-02-11 08:42:00,
2013-02-11 03:52:00,47.0,44.0,-100.00,NW,325,6.0,11.0,89,0.00,,,-99.99,,2013-02-11 08:52:00,
2013-02-11 04:02:00,47.0,44.0,-100.00,NW,325,6.0,11.0,89,0.00,,,-99.99,,2013-02-11 09:02:00,
2013-02-11 04:12:00,48.0,45.0,-100.00,NW,315,5.0,9.0,89,0.00,,,-99.99,,2013-02-11 09:12:00,
2013-02-11 04:21:00,48.0,45.0,-100.00,NW,320,8.0,12.0,89,0.00,,,-99.99,,2013-02-11 09:21:00,
2013-02-11 04:32:00,48.0,45.0,-100.00,NW,320,7.0,12.0,89,0.00,,,-99.99,,2013-02-11 09:32:00,
2013-02-11 04:42:00,48.0,45.0,-100.00,NNW,330,7.0,12.0,89,0.00,,,-99.99,,2013-02-11 09:42:00,
2013-02-11 04:51:00,48.0,45.0,-100.00,NW,320,7.0,12.0,89,0.00,,,-99.99,,2013-02-11 09:51:00,
2013-02-11 05:01:00,49.0,46.0,-100.00,NNW,330,7.0,11.0,89,0.00,,,-99.99,,2013-02-11 10:01:00,
2013-02-11 05:11:00,48.0,46.0,-100.00,NW,320,6.0,12.0,89,0.00,,,-99.99,,2013-02-11 10:11:00,
2013-02-11 05:21:00,49.0,46.0,-100.00,NW,320,9.0,13.0,89,0.00,,,-99.99,,2013-02-11 10:21:00,
2013-02-11 05:32:00,49.0,46.0,-100.00,NW,305,10.0,15.0,90,0.00,,,-99.99,,2013-02-11 10:32:00,
2013-02-11 05:42:00,48.0,46.0,-100.00,NW,325,9.0,12.0,90,0.00,,,-99.99,,2013-02-11 10:42:00,
2013-02-11 05:52:00,49.0,46.0,-100.00,NNW,330,9.0,14.0,90,0.00,,,-99.99,,2013-02-11 10:52:00,
2013-02-11 06:02:00,49.0,46.0,-100.00,NNW,330,9.0,15.0,88,0.00,,,-99.99,,2013-02-11 11:02:00,
2013-02-11 06:11:00,50.0,46.0,-100.00,NNW,330,9.0,19.0,88,0.00,,,-99.99,,2013-02-11 11:11:00,
2013-02-11 06:22:00,50.0,46.0,-100.00,NNW,335,10.0,16.0,87,0.00,,,-99.99,,2013-02-11 11:22:00,
2013-02-11 06:32:00,50.0,46.0,-100.00,NNW,340,11.0,17.0,87,0.00,,,-99.99,,2013-02-11 11:32:00,
2013-02-11 06:42:00,50.0,46.0,-100.00,NW,325,9.0,16.0,87,0.00,,,-99.99,,2013-02-11 11:42:00,
2013-02-11 06:52:00,50.0,46.0,-100.00,NNW,335,9.0,14.0,88,0.00,,,-99.99,,2013-02-11 11:52:00,
2013-02-11 07:03:00,50.0,46.0,-100.00,NW,325,7.0,17.0,88,0.00,,,-99.99,,2013-02-11 12:03:00,
2013-02-11 07:12:00,50.0,47.0,-100.00,North,350,8.0,14.0,88,0.00,,,-99.99,,2013-02-11 12:12:00,
2013-02-11 07:22:00,50.0,47.0,-100.00,NNW,335,10.0,16.0,88,0.00,,,-99.99,,2013-02-11 12:22:00,
2013-02-11 07:32:00,50.0,47.0,-100.00,NNW,335,7.0,17.0,89,0.00,,,-99.99,,2013-02-11 12:32:00,
2013-02-11 07:42:00,49.0,46.0,-100.00,NNW,330,6.0,12.0,89,0.00,,,-99.99,,2013-02-11 12:42:00,
2013-02-11 07:52:00,49.0,46.0,-100.00,NW,315,8.0,12.0,89,0.00,,,-99.99,,2013-02-11 12:52:00,
2013-02-11 08:02:00,49.0,46.0,-100.00,NNW,330,9.0,16.0,89,0.00,,,-99.99,,2013-02-11 13:02:00,
2013-02-11 08:12:00,50.0,46.0,-100.00,North,0,11.0,17.0,87,0.00,,,-99.99,,2013-02-11 13:12:00,
2013-02-11 08:22:00,50.0,46.0,-100.00,NNW,345,9.0,16.0,85,0.00,,,-99.99,,2013-02-11 13:22:00,
2013-02-11 08:33:00,50.0,46.0,-100.00,North,0,9.0,14.0,84,0.00,,,-99.99,,2013-02-11 13:33:00,
2013-02-11 08:42:00,50.0,45.0,-100.00,North,0,11.0,21.0,82,0.00,,,-99.99,,2013-02-11 13:42:00,
2013-02-11 08:52:00,50.0,44.0,-100.00,North,350,15.0,25.0,79,0.00,,,-99.99,,2013-02-11 13:52:00,
2013-02-11 09:02:00,51.0,44.0,-100.00,NNW,340,9.0,22.0,76,0.00,,,-99.99,,2013-02-11 14:02:00,
2013-02-11 09:11:00,51.0,44.0,-100.00,North,0,11.0,22.0,77,0.00,,,-99.99,,2013-02-11 14:11:00,
2013-02-11 09:22:00,52.0,44.0,-100.00,North,0,14.0,29.0,72,0.00,,,-99.99,,2013-02-11 14:22:00,
2013-02-11 09:33:00,52.0,43.0,-100.00,North,0,11.0,28.0,70,0.00,,,-99.99,,2013-02-11 14:33:00,
2013-02-11 09:42:00,53.0,42.0,-100.00,North,0,17.0,26.0,67,0.00,,,-99.99,,2013-02-11 14:42:00,
2013-02-11 09:52:00,53.0,40.0,-100.00,North,355,21.0,32.0,62,0.00,,,-99.99,,2013-02-11 14:52:00,
2013-02-11 10:02:00,52.0,40.0,-100.00,North,10,13.0,31.0,63,0.00,,,-99.99,,2013-02-11 15:02:00,
2013-02-11 10:11:00,52.0,40.0,-100.00,North,5,16.0,28.0,63,0.00,,,-99.99,,2013-02-11 15:11:00,
2013-02-11 10:22:00,53.0,39.0,-100.00,North,5,19.0,32.0,57,0.00,,,-99.99,,2013-02-11 15:22:00,
2013-02-11 10:32:00,53.0,38.0,-100.00,North,0,16.0,29.0,55,0.00,,,-99.99,,2013-02-11 15:32:00,
2013-02-11 10:42:00,53.0,37.0,-100.00,North,350,19.0,32.0,55,0.00,,,-99.99,,2013-02-11 15:42:00,
2013-02-11 10:52:00,53.0,36.0,-100.00,North,0,23.0,37.0,51,0.00,,,-99.99,,2013-02-11 15:52:00,
2013-02-11 11:02:00,54.0,37.0,-100.00,NNW,345,16.0,29.0,53,0.00,,,-99.99,,2013-02-11 16:02:00,
2013-02-11 11:12:00,53.0,37.0,-100.00,NE,40,18.0,30.0,52,0.00,,,-99.99,,2013-02-11 16:12:00,
2013-02-11 11:22:00,53.0,35.0,-100.00,NNE,20,21.0,32.0,51,0.00,,,-99.99,,2013-02-11 16:22:00,
2013-02-11 11:32:00,51.0,34.0,-100.00,NNE,30,21.0,35.0,51,0.00,,,-99.99,,2013-02-11 16:32:00,
2013-02-11 11:42:00,51.0,33.0,-100.00,NNE,25,22.0,32.0,49,0.00,,,-99.99,,2013-02-11 16:42:00,
2013-02-11 11:52:00,52.0,31.0,-100.00,NNE,30,24.0,30.0,44,0.00,,,-99.99,,2013-02-11 16:52:00,
2013-02-11 12:02:00,52.0,31.0,-100.00,North,0,22.0,37.0,44,0.00,,,-99.99,,2013-02-11 17:02:00,
2013-02-11 12:11:00,51.0,30.0,-100.00,North,5,22.0,36.0,44,0.00,,,-99.99,,2013-02-11 17:11:00,
2013-02-11 12:22:00,52.0,31.0,-100.00,NNE,25,21.0,31.0,44,0.00,,,-99.99,,2013-02-11 17:22:00,
2013-02-11 12:32:00,51.0,30.0,-100.00,NNE,20,26.0,35.0,42,0.00,,,-99.99,,2013-02-11 17:32:00,
2013-02-11 12:42:00,51.0,28.0,-100.00,North,10,21.0,38.0,41,0.00,,,-99.99,,2013-02-11 17:42:00,
2013-02-11 12:52:00,51.0,29.0,-100.00,NE,40,22.0,33.0,42,0.00,,,-99.99,,2013-02-11 17:52:00,
2013-02-11 13:02:00,51.0,29.0,-100.00,NNE,15,22.0,37.0,43,0.00,,,-99.99,,2013-02-11 18:02:00,
2013-02-11 13:11:00,50.0,29.0,-100.00,NNE,30,26.0,34.0,43,0.00,,,-99.99,,2013-02-11 18:11:00,
2013-02-11 13:22:00,51.0,30.0,-100.00,NNE,20,20.0,32.0,44,0.00,,,-99.99,,2013-02-11 18:22:00,
2013-02-11 13:32:00,50.0,29.0,-100.00,NNE,15,26.0,37.0,44,0.00,,,-99.99,,2013-02-11 18:32:00,
2013-02-11 13:42:00,49.0,29.0,-100.00,NNE,20,20.0,35.0,47,0.00,,,-99.99,,2013-02-11 18:42:00,
2013-02-11 13:53:00,48.0,28.0,-100.00,NNE,30,19.0,35.0,46,0.00,,,-99.99,,2013-02-11 18:53:00,
2013-02-11 14:02:00,47.0,29.0,-100.00,North,10,24.0,36.0,47,0.00,,,-99.99,,2013-02-11 19:02:00,
2013-02-11 14:11:00,48.0,29.0,-100.00,NNE,30,22.0,34.0,47,0.00,,,-99.99,,2013-02-11 19:11:00,
2013-02-11 14:22:00,49.0,30.0,-100.00,NNE,30,17.0,32.0,48,0.00,,,-99.99,,2013-02-11 19:22:00,
2013-02-11 14:32:00,47.0,29.0,-100.00,NNE,30,21.0,34.0,50,0.00,,,-99.99,,2013-02-11 19:32:00,
2013-02-11 14:42:00,47.0,28.0,-100.00,NE,35,25.0,36.0,46,0.00,,,-99.99,,2013-02-11 19:42:00,
2013-02-11 14:51:00,47.0,28.0,-100.00,NE,40,19.0,37.0,47,0.00,,,-99.99,,2013-02-11 19:51:00,
2013-02-11 15:02:00,47.0,28.0,-100.00,NE,45,16.0,34.0,48,0.00,,,-99.99,,2013-02-11 20:02:00,
2013-02-11 15:11:00,47.0,27.0,-100.00,NNE,20,20.0,35.0,47,0.00,,,-99.99,,2013-02-11 20:11:00,
2013-02-11 15:21:00,47.0,27.0,-100.00,NE,35,17.0,35.0,46,0.00,,,-99.99,,2013-02-11 20:21:00,
2013-02-11 15:32:00,46.0,27.0,-100.00,NNE,25,17.0,38.0,47,0.00,,,-99.99,,2013-02-11 20:32:00,
2013-02-11 15:42:00,47.0,28.0,-100.00,NNE,30,17.0,29.0,47,0.00,,,-99.99,,2013-02-11 20:42:00,
2013-02-11 15:52:00,46.0,27.0,-100.00,NE,55,14.0,32.0,47,0.00,,,-99.99,,2013-02-11 20:52:00,
2013-02-11 16:02:00,47.0,27.0,-100.00,NE,40,14.0,27.0,46,0.00,,,-99.99,,2013-02-11 21:02:00,
2013-02-11 16:12:00,46.0,27.0,-100.00,NE,45,13.0,27.0,47,0.00,,,-99.99,,2013-02-11 21:12:00,
2013-02-11 16:22:00,46.0,27.0,-100.00,NNE,30,15.0,22.0,48,0.00,,,-99.99,,2013-02-11 21:22:00,
2013-02-11 16:32:00,46.0,27.0,-100.00,NE,55,15.0,23.0,47,0.00,,,-99.99,,2013-02-11 21:32:00,
2013-02-11 16:42:00,45.0,27.0,-100.00,NE,45,13.0,27.0,48,0.00,,,-99.99,,2013-02-11 21:42:00,
2013-02-11 16:52:00,46.0,27.0,-100.00,NNE,25,12.0,21.0,48,0.00,,,-99.99,,2013-02-11 21:52:00,
2013-02-11 17:02:00,46.0,27.0,-100.00,NE,35,21.0,30.0,47,0.00,,,-99.99,,2013-02-11 22:02:00,
2013-02-11 17:11:00,45.0,27.0,-100.00,NE,50,17.0,31.0,48,0.00,,,-99.99,,2013-02-11 22:11:00,
2013-02-11 17:22:00,45.0,27.0,-100.00,NNE,30,11.0,25.0,50,0.00,,,-99.99,,2013-02-11 22:22:00,
2013-02-11 17:32:00,44.0,27.0,-100.00,ENE,60,12.0,19.0,50,0.00,,,-99.99,,2013-02-11 22:32:00,
2013-02-11 17:42:00,44.0,27.0,-100.00,NE,40,14.0,22.0,50,0.00,,,-99.99,,2013-02-11 22:42:00,
2013-02-11 17:52:00,44.0,27.0,-100.00,NE,40,12.0,19.0,50,0.00,,,-99.99,,2013-02-11 22:52:00,
2013-02-11 18:02:00,44.0,26.0,-100.00,NE,50,12.0,25.0,50,0.00,,,-99.99,,2013-02-11 23:02:00,
2013-02-11 18:11:00,43.0,26.0,-100.00,ENE,60,10.0,25.0,50,0.00,,,-99.99,,2013-02-11 23:11:00,
2013-02-11 18:22:00,43.0,26.0,-100.00,NE,45,12.0,25.0,51,0.00,,,-99.99,,2013-02-11 23:22:00,
2013-02-11 18:32:00,43.0,26.0,-100.00,NE,40,11.0,23.0,51,0.00,,,-99.99,,2013-02-11 23:32:00,
2013-02-11 18:42:00,43.0,26.0,-100.00,NE,50,14.0,25.0,51,0.00,,,-99.99,,2013-02-11 23:42:00,
2013-02-11 18:52:00,42.0,26.0,-100.00,NE,55,10.0,16.0,52,0.00,,,-99.99,,2013-02-11 23:52:00,
2013-02-11 19:02:00,42.0,26.0,-100.00,ENE,60,11.0,18.0,53,0.00,,,-99.99,,2013-02-12 00:02:00,
2013-02-11 19:12:00,42.0,26.0,-100.00,ENE,65,12.0,19.0,55,0.00,,,-99.99,,2013-02-12 00:12:00,
2013-02-11 19:22:00,41.0,27.0,-100.00,ENE,75,7.0,16.0,56,0.00,,,-99.99,,2013-02-12 00:22:00,
2013-02-11 19:32:00,40.0,28.0,-100.00,East,80,7.0,17.0,60,0.00,,,-99.99,,2013-02-12 00:32:00,
2013-02-11 19:42:00,40.0,27.0,-100.00,NE,55,11.0,19.0,61,0.00,,,-99.99,,2013-02-12 00:42:00,
2013-02-11 19:52:00,40.0,28.0,-100.00,East,80,6.0,16.0,61,0.00,,,-99.99,,2013-02-12 00:52:00,
2013-02-11 20:02:00,40.0,27.0,-100.00,ENE,75,9.0,15.0,61,0.00,,,-99.99,,2013-02-12 01:02:00,
2013-02-11 20:11:00,40.0,27.0,-100.00,NE,45,7.0,14.0,61,0.00,,,-99.99,,2013-02-12 01:11:00,
2013-02-11 20:22:00,40.0,27.0,-100.00,NE,50,6.0,16.0,60,0.00,,,-99.99,,2013-02-12 01:22:00,
2013-02-11 20:32:00,40.0,27.0,-100.00,NE,50,10.0,16.0,59,0.00,,,-99.99,,2013-02-12 01:32:00,
2013-02-11 20:42:00,40.0,26.0,-100.00,NE,50,9.0,16.0,59,0.00,,,-99.99,,2013-02-12 01:42:00,
2013-02-11 20:52:00,40.0,26.0,-100.00,NE,45,9.0,16.0,57,0.00,,,-99.99,,2013-02-12 01:52:00,
2013-02-11 21:02:00,40.0,26.0,-100.00,NNE,25,12.0,17.0,56,0.00,,,-99.99,,2013-02-12 02:02:00,
2013-02-11 21:12:00,40.0,25.0,-100.00,NE,40,10.0,19.0,56,0.00,,,-99.99,,2013-02-12 02:12:00,
2013-02-11 21:22:00,40.0,25.0,-100.00,NE,40,9.0,18.0,56,0.00,,,-99.99,,2013-02-12 02:22:00,
2013-02-11 21:32:00,40.0,25.0,-100.00,NNE,25,9.0,18.0,56,0.00,,,-99.99,,2013-02-12 02:32:00,
2013-02-11 21:42:00,40.0,25.0,-100.00,NNE,30,12.0,19.0,56,0.00,,,-99.99,,2013-02-12 02:42:00,
2013-02-11 21:52:00,40.0,25.0,-100.00,NE,45,14.0,19.0,55,0.00,,,-99.99,,2013-02-12 02:52:00,
2013-02-11 22:02:00,40.0,25.0,-100.00,NNE,30,9.0,19.0,55,0.00,,,-99.99,,2013-02-12 03:02:00,
2013-02-11 22:11:00,40.0,25.0,-100.00,NE,35,12.0,17.0,55,0.00,,,-99.99,,2013-02-12 03:11:00,
2013-02-11 22:21:00,40.0,25.0,-100.00,NE,40,12.0,18.0,55,0.00,,,-99.99,,2013-02-12 03:21:00,
2013-02-11 22:32:00,40.0,24.0,-100.00,NE,50,14.0,24.0,53,0.00,,,-99.99,,2013-02-12 03:32:00,
2013-02-11 22:42:00,40.0,24.0,-100.00,NE,45,16.0,21.0,53,0.00,,,-99.99,,2013-02-12 03:42:00,
2013-02-11 22:51:00,40.0,24.0,-100.00,NNE,30,15.0,22.0,53,0.00,,,-99.99,,2013-02-12 03:51:00,
2013-02-11 23:01:00,39.0,24.0,-100.00,NNE,30,13.0,19.0,54,0.00,,,-99.99,,2013-02-12 04:01:00,
2013-02-11 23:11:00,39.0,25.0,-100.00,NNE,25,13.0,19.0,55,0.00,,,-99.99,,2013-02-12 04:11:00,
2013-02-11 23:21:00,39.0,25.0,-100.00,NNE,30,11.0,19.0,56,0.00,,,-99.99,,2013-02-12 04:21:00,
2013-02-11 23:32:00,39.0,24.0,-100.00,NE,35,18.0,29.0,54,0.00,,,-99.99,,2013-02-12 04:32:00,
2013-02-11 23:42:00,39.0,24.0,-100.00,ENE,65,14.0,29.0,53,0.00,,,-99.99,,2013-02-12 04:42:00,
2013-02-11 23:51:00,39.0,23.0,-100.00,NE,45,16.0,27.0,51,0.00,,,-99.99,,2013-02-12 04:51:00,